| time (UTC) | temp C | wind direction | speed KPH | gust KPH | rain 1hr cm | rain 24hr cm | rain mn cm | humidity % | barometer mb |
| 20260504050329 | 16 | 43 | 0.0 | 3.2 | 0.00 | 0.00 | 0.00 | 50 | 1008.8 |
| 20260504045318 | 15 | 42 | 1.6 | 3.2 | 0.00 | 0.00 | 0.00 | 51 | 1008.9 |
| 20260504043235 | 15 | 36 | 3.2 | 6.4 | 0.00 | 0.00 | 0.00 | 51 | 1009.0 |
| 20260504042217 | 16 | 42 | 3.2 | 6.4 | 0.00 | 0.00 | 0.00 | 49 | 1009.3 |
| 20260504041152 | 16 | 59 | 1.6 | 3.2 | 0.00 | 0.00 | 0.00 | 49 | 1009.2 |
| 20260504040149 | 16 | 59 | 1.6 | 3.2 | 0.00 | 0.00 | 0.00 | 48 | 1009.1 |
| 20260504035145 | 16 | 100 | 0.0 | 3.2 | 0.00 | 0.00 | 0.00 | 49 | 1009.0 |
| 20260504034143 | 16 | 18 | 0.0 | 4.8 | 0.00 | 0.00 | 0.00 | 49 | 1008.9 |
| 20260504032029 | 16 | 107 | 0.0 | 3.2 | 0.00 | 0.00 | 0.00 | 47 | 1008.8 |
| 20260504031014 | 16 | 108 | 0.0 | 8.0 | 0.00 | 0.00 | 0.00 | 48 | 1008.6 |
| 20260504024840 | 16 | 57 | 4.8 | 8.0 | 0.00 | 0.00 | 0.00 | 50 | 1008.6 |
| 20260504023840 | 16 | 68 | 0.0 | 6.4 | 0.00 | 0.00 | 0.00 | 49 | 1008.6 |
| 20260504022850 | 17 | 75 | 1.6 | 6.4 | 0.00 | 0.00 | 0.00 | 48 | 1008.3 |
| 20260504021855 | 17 | 106 | 0.0 | 0.0 | 0.00 | 0.00 | 0.00 | 46 | 1008.6 |
| 20260504020859 | 17 | 96 | 1.6 | 8.0 | 0.00 | 0.00 | 0.00 | 45 | 1008.7 |
| 20260504015901 | 18 | 78 | 3.2 | 14.5 | 0.00 | 0.00 | 0.00 | 45 | 1008.8 |
| 20260504014859 | 18 | 104 | 3.2 | 14.5 | 0.00 | 0.00 | 0.00 | 43 | 1008.9 |
| 20260504013826 | 18 | 86 | 4.8 | 12.9 | 0.00 | 0.00 | 0.00 | 42 | 1008.9 |
| 20260504012757 | 19 | 130 | 3.2 | 16.1 | 0.00 | 0.00 | 0.00 | 40 | 1008.8 |
| 20260504011803 | 20 | 161 | 8.0 | 16.1 | 0.00 | 0.00 | 0.00 | 37 | 1008.9 |
| 20260504010820 | 20 | 142 | 6.4 | 14.5 | 0.00 | 0.00 | 0.00 | 37 | 1009.0 |
| 20260504004739 | 19 | 126 | 6.4 | 14.5 | 0.00 | 0.00 | 0.00 | 39 | 1009.0 |
| 20260504003744 | 19 | 150 | 4.8 | 12.9 | 0.00 | 0.00 | 0.00 | 39 | 1009.2 |
| 20260504001612 | 19 | 57 | 6.4 | 16.1 | 0.00 | 0.00 | 0.00 | 41 | 1009.4 |
| 20260503235507 | 19 | 67 | 8.0 | 19.3 | 0.00 | 0.00 | 0.00 | 43 | 1009.6 |
| 20260503234443 | 19 | 53 | 8.0 | 19.3 | 0.00 | 0.00 | 0.00 | 43 | 1009.6 |
| 20260503232330 | 20 | 53 | 8.0 | 24.1 | 0.00 | 0.00 | 0.00 | 42 | 1009.8 |
| 20260503231346 | 19 | 105 | 14.5 | 24.1 | 0.00 | 0.00 | 0.00 | 42 | 1009.8 |
| 20260503230351 | 20 | 44 | 9.7 | 19.3 | 0.00 | 0.00 | 0.00 | 41 | 1010.0 |
| 20260503225334 | 21 | 73 | 9.7 | 19.3 | 0.00 | 0.00 | 0.00 | 40 | 1010.2 |
| 20260503224326 | 20 | 88 | 11.3 | 20.9 | 0.00 | 0.00 | 0.00 | 41 | 1010.2 |
| 20260503222140 | 19 | 55 | 12.9 | 24.1 | 0.00 | 0.00 | 0.00 | 44 | 1010.5 |
| 20260503221200 | 19 | 68 | 11.3 | 24.1 | 0.00 | 0.00 | 0.00 | 44 | 1010.5 |
| 20260503220159 | 18 | 57 | 12.9 | 24.1 | 0.00 | 0.00 | 0.00 | 45 | 1010.6 |
| 20260503215203 | 18 | 64 | 11.3 | 20.9 | 0.00 | 0.00 | 0.00 | 44 | 1010.8 |
| 20260503214144 | 18 | 84 | 12.9 | 22.5 | 0.00 | 0.00 | 0.00 | 45 | 1011.1 |
| 20260503213112 | 20 | 54 | 12.9 | 25.7 | 0.00 | 0.00 | 0.00 | 43 | 1011.3 |
| 20260503212055 | 20 | 36 | 8.0 | 19.3 | 0.00 | 0.00 | 0.00 | 44 | 1011.6 |
| 20260503211114 | 19 | 56 | 9.7 | 27.4 | 0.00 | 0.00 | 0.00 | 45 | 1011.7 |
| 20260503210139 | 18 | 19 | 14.5 | 27.4 | 0.00 | 0.00 | 0.00 | 45 | 1011.9 |
| 20260503205108 | 19 | 47 | 12.9 | 24.1 | 0.00 | 0.00 | 0.00 | 44 | 1012.0 |
| 20260503204132 | 19 | 32 | 12.9 | 27.4 | 0.00 | 0.00 | 0.00 | 45 | 1012.3 |
| 20260503203108 | 20 | 84 | 11.3 | 29.0 | 0.00 | 0.00 | 0.00 | 43 | 1012.4 |
| 20260503202125 | 20 | 74 | 12.9 | 29.0 | 0.00 | 0.00 | 0.00 | 43 | 1012.6 |
| 20260503201053 | 18 | 68 | 12.9 | 24.1 | 0.00 | 0.00 | 0.00 | 45 | 1012.8 |
| 20260503195017 | 19 | 105 | 11.3 | 22.5 | 0.00 | 0.00 | 0.00 | 43 | 1013.3 |
| 20260503194012 | 19 | 92 | 12.9 | 29.0 | 0.00 | 0.00 | 0.00 | 44 | 1013.5 |
| 20260503192942 | 19 | 79 | 16.1 | 29.0 | 0.00 | 0.00 | 0.00 | 44 | 1013.6 |
| 20260503192004 | 19 | 74 | 9.7 | 24.1 | 0.00 | 0.00 | 0.00 | 43 | 1013.7 |
| 20260503191009 | 19 | 100 | 11.3 | 24.1 | 0.00 | 0.00 | 0.00 | 46 | 1014.2 |
| 20260503185948 | 19 | 71 | 11.3 | 27.4 | 0.00 | 0.00 | 0.00 | 46 | 1014.4 |
| 20260503184954 | 18 | 95 | 14.5 | 27.4 | 0.00 | 0.00 | 0.00 | 48 | 1014.4 |
| 20260503183928 | 17 | 55 | 11.3 | 25.7 | 0.00 | 0.00 | 0.00 | 48 | 1014.7 |
| 20260503182929 | 17 | 75 | 11.3 | 25.7 | 0.00 | 0.00 | 0.00 | 48 | 1014.7 |
| 20260503181904 | 18 | 42 | 14.5 | 24.1 | 0.00 | 0.00 | 0.00 | 47 | 1014.9 |
| 20260503180918 | 18 | 23 | 11.3 | 27.4 | 0.00 | 0.00 | 0.00 | 47 | 1015.0 |
| 20260503174748 | 16 | 65 | 12.9 | 22.5 | 0.00 | 0.00 | 0.00 | 48 | 1015.2 |
| 20260503170317 | 17 | 55 | 12.9 | 24.1 | 0.00 | 0.00 | 0.00 | 48 | 1015.8 |
| 20260503151010 | 13 | 41 | 9.7 | 20.9 | 0.00 | 0.00 | 0.00 | 62 | 1016.2 |
| 20260503130710 | 10 | 359 | 8.0 | 12.9 | 0.00 | 0.00 | 0.00 | 69 | 1015.8 |
| 20260503110527 | 10 | 352 | 8.0 | 14.5 | 0.00 | 0.03 | 0.00 | 69 | 1015.5 |
| 20260503090336 | 10 | 329 | 4.8 | 12.9 | 0.00 | 0.03 | 0.00 | 69 | 1016.5 |
| 20260503081306 | 10 | 345 | 6.4 | 14.5 | 0.00 | 0.03 | 0.00 | 70 | 1016.9 |
| 20260503080255 | 10 | 350 | 8.0 | 14.5 | 0.00 | 0.03 | 0.00 | 70 | 1016.9 |
| 20260503072053 | 10 | 359 | 8.0 | 17.7 | 0.00 | 0.03 | 0.00 | 71 | 1017.2 |
| 20260503071046 | 10 | 16 | 9.7 | 17.7 | 0.00 | 0.03 | 0.00 | 70 | 1017.3 |